| time (UTC) | temp F | wind direction | speed knots | gust knots | rain 1hr in | rain 24hr in | rain mn in | humidity % | barometer mb |
| 20260506164717 | 49 | 209 | 4.3 | 9.6 | 0.00 | 0.19 | 0.18 | 88 | 1010.2 |
| 20260506163717 | 49 | 217 | 5.2 | 10.4 | 0.00 | 0.21 | 0.18 | 87 | 1010.2 |
| 20260506162715 | 49 | 217 | 4.3 | 10.4 | 0.00 | 0.26 | 0.18 | 88 | 1010.0 |
| 20260506161716 | 49 | 219 | 5.2 | 12.2 | 0.00 | 0.27 | 0.18 | 88 | 1010.1 |
| 20260506160716 | 50 | 212 | 5.2 | 10.4 | 0.00 | 0.28 | 0.18 | 88 | 1010.0 |
| 20260506155717 | 50 | 220 | 4.3 | 8.7 | 0.00 | 0.28 | 0.18 | 90 | 1010.1 |
| 20260506154716 | 49 | 203 | 3.5 | 9.6 | 0.00 | 0.28 | 0.18 | 91 | 1010.1 |
| 20260506153717 | 49 | 214 | 4.3 | 13.0 | 0.00 | 0.28 | 0.18 | 92 | 1010.1 |
| 20260506152718 | 49 | 218 | 4.3 | 9.6 | 0.00 | 0.29 | 0.18 | 92 | 1010.2 |
| 20260506151716 | 49 | 218 | 3.5 | 7.8 | 0.00 | 0.29 | 0.18 | 92 | 1010.1 |
| 20260506150716 | 49 | 214 | 4.3 | 9.6 | 0.00 | 0.29 | 0.18 | 91 | 1010.1 |
| 20260506145717 | 49 | 222 | 5.2 | 8.7 | 0.00 | 0.29 | 0.18 | 92 | 1010.1 |
| 20260506144716 | 49 | 216 | 5.2 | 10.4 | 0.00 | 0.29 | 0.18 | 92 | 1010.1 |
| 20260506143717 | 48 | 220 | 4.3 | 8.7 | 0.01 | 0.29 | 0.18 | 93 | 1010.1 |
| 20260506142717 | 48 | 219 | 4.3 | 8.7 | 0.02 | 0.29 | 0.18 | 94 | 1010.0 |
| 20260506141717 | 48 | 204 | 4.3 | 7.8 | 0.02 | 0.29 | 0.18 | 94 | 1010.0 |
| 20260506140715 | 48 | 213 | 4.3 | 7.8 | 0.03 | 0.29 | 0.18 | 94 | 1010.0 |
| 20260506135716 | 47 | 215 | 5.2 | 10.4 | 0.04 | 0.29 | 0.18 | 94 | 1010.0 |
| 20260506134717 | 47 | 206 | 5.2 | 12.2 | 0.05 | 0.29 | 0.18 | 94 | 1010.0 |
| 20260506133717 | 47 | 219 | 5.2 | 11.3 | 0.05 | 0.28 | 0.17 | 95 | 1010.0 |
| 20260506132717 | 47 | 212 | 5.2 | 10.4 | 0.05 | 0.28 | 0.17 | 95 | 1010.0 |
| 20260506131717 | 47 | 217 | 5.2 | 9.6 | 0.05 | 0.27 | 0.16 | 95 | 1010.0 |
| 20260506130718 | 47 | 209 | 6.1 | 13.0 | 0.06 | 0.26 | 0.15 | 95 | 1009.9 |
| 20260506125715 | 47 | 213 | 6.1 | 10.4 | 0.09 | 0.25 | 0.14 | 96 | 1009.7 |
| 20260506124716 | 47 | 204 | 5.2 | 13.0 | 0.10 | 0.24 | 0.13 | 96 | 1009.6 |
| 20260506123716 | 48 | 205 | 7.0 | 15.6 | 0.10 | 0.24 | 0.13 | 96 | 1009.4 |
| 20260506122716 | 48 | 207 | 7.0 | 13.9 | 0.10 | 0.23 | 0.12 | 95 | 1009.2 |
| 20260506121717 | 49 | 204 | 5.2 | 11.3 | 0.09 | 0.22 | 0.11 | 95 | 1009.0 |
| 20260506120717 | 50 | 215 | 7.8 | 13.9 | 0.09 | 0.20 | 0.09 | 94 | 1008.8 |
| 20260506115717 | 52 | 197 | 1.7 | 6.1 | 0.04 | 0.16 | 0.05 | 94 | 1008.6 |
| 20260506114716 | 53 | 229 | 0.9 | 2.6 | 0.02 | 0.14 | 0.03 | 93 | 1008.5 |
| 20260506113716 | 53 | 207 | 1.7 | 4.3 | 0.02 | 0.13 | 0.02 | 91 | 1008.3 |
| 20260506112716 | 54 | 218 | 0.9 | 4.3 | 0.01 | 0.13 | 0.02 | 91 | 1008.1 |
| 20260506111716 | 54 | 227 | 0.9 | 3.5 | 0.02 | 0.13 | 0.02 | 90 | 1008.2 |
| 20260506110717 | 54 | 295 | 2.6 | 5.2 | 0.01 | 0.13 | 0.01 | 88 | 1008.1 |
| 20260506105717 | 54 | 227 | 0.9 | 3.5 | 0.01 | 0.13 | 0.01 | 86 | 1008.2 |
| 20260506104715 | 55 | 268 | 0.9 | 2.6 | 0.01 | 0.13 | 0.01 | 86 | 1008.2 |
| 20260506103716 | 55 | 274 | 1.7 | 4.3 | 0.01 | 0.13 | 0.01 | 85 | 1008.1 |
| 20260506102716 | 55 | 259 | 0.9 | 2.6 | 0.01 | 0.13 | 0.01 | 88 | 1008.0 |
| 20260506101717 | 53 | 291 | 1.7 | 3.5 | 0.00 | 0.13 | 0.00 | 86 | 1008.0 |
| 20260506100716 | 53 | 301 | 0.9 | 2.6 | 0.00 | 0.13 | 0.00 | 87 | 1008.1 |
| 20260506095717 | 53 | 295 | 0.0 | 1.7 | 0.00 | 0.13 | 0.00 | 87 | 1008.1 |
| 20260506094717 | 54 | 228 | 0.0 | 0.9 | 0.00 | 0.13 | 0.00 | 86 | 1008.2 |
| 20260506093716 | 54 | 244 | 0.0 | 2.6 | 0.00 | 0.13 | 0.00 | 84 | 1008.2 |
| 20260506092716 | 54 | 263 | 0.0 | 1.7 | 0.00 | 0.13 | 0.00 | 87 | 1008.1 |
| 20260506091716 | 54 | 266 | 0.0 | 2.6 | 0.00 | 0.13 | 0.00 | 89 | 1007.9 |
| 20260506090716 | 53 | 0.0 | 0.0 | 0.00 | 0.13 | 0.00 | 89 | 1007.9 | |
| 20260506085716 | 53 | 0.0 | 0.0 | 0.00 | 0.13 | 0.00 | 89 | 1008.0 | |
| 20260506084717 | 53 | 0.0 | 0.0 | 0.00 | 0.13 | 0.00 | 88 | 1007.9 | |
| 20260506083717 | 53 | 0.0 | 0.0 | 0.00 | 0.13 | 0.00 | 88 | 1007.9 | |
| 20260506082715 | 53 | 0.0 | 0.0 | 0.00 | 0.13 | 0.00 | 88 | 1007.9 | |
| 20260506081715 | 53 | 0.0 | 0.0 | 0.00 | 0.13 | 0.00 | 88 | 1007.9 | |
| 20260506080716 | 53 | 0.0 | 0.0 | 0.00 | 0.13 | 0.00 | 89 | 1007.9 | |
| 20260506072717 | 52 | 0.0 | 0.0 | 0.00 | 0.14 | 0.00 | 91 | 1008.0 | |
| 20260506071716 | 53 | 0.0 | 0.0 | 0.00 | 0.14 | 0.00 | 90 | 1007.8 | |
| 20260506070715 | 52 | 0.0 | 0.0 | 0.00 | 0.14 | 0.00 | 90 | 1007.9 | |
| 20260506061717 | 51 | 0.0 | 0.0 | 0.00 | 0.14 | 0.00 | 89 | 1007.8 | |
| 20260506060715 | 51 | 0.0 | 0.0 | 0.00 | 0.14 | 0.00 | 91 | 1007.7 | |
| 20260506050717 | 49 | 0.0 | 0.0 | 0.00 | 0.14 | 0.00 | 92 | 1008.0 | |
| 20260506044715 | 49 | 0.0 | 0.0 | 0.00 | 0.14 | 0.00 | 91 | 1007.9 | |
| 20260506043716 | 49 | 0.0 | 0.0 | 0.00 | 0.14 | 0.00 | 91 | 1008.0 | |
| 20260506042716 | 49 | 0.0 | 0.0 | 0.00 | 0.14 | 0.00 | 91 | 1008.0 | |
| 20260506041717 | 49 | 0.0 | 0.0 | 0.00 | 0.14 | 0.00 | 90 | 1008.0 | |
| 20260506040717 | 49 | 0.0 | 0.0 | 0.00 | 0.14 | 0.00 | 91 | 1008.1 | |
| 20260506035718 | 49 | 0.0 | 0.0 | 0.00 | 0.14 | 0.00 | 91 | 1008.3 | |
| 20260506034715 | 49 | 0.0 | 0.0 | 0.00 | 0.14 | 0.00 | 91 | 1008.4 | |
| 20260506033716 | 49 | 0.0 | 0.0 | 0.00 | 0.14 | 0.00 | 91 | 1008.5 | |
| 20260506032716 | 49 | 0.0 | 0.0 | 0.00 | 0.14 | 0.00 | 91 | 1008.6 | |
| 20260506031716 | 49 | 0.0 | 0.0 | 0.00 | 0.14 | 0.00 | 91 | 1008.6 | |
| 20260506030716 | 50 | 0.0 | 0.0 | 0.00 | 0.14 | 0.00 | 91 | 1008.7 | |
| 20260506025717 | 50 | 0.0 | 0.0 | 0.00 | 0.14 | 0.00 | 91 | 1008.8 | |
| 20260506024717 | 50 | 0.0 | 0.0 | 0.00 | 0.14 | 0.00 | 90 | 1009.0 | |
| 20260506023715 | 50 | 0.0 | 0.0 | 0.00 | 0.14 | 0.00 | 90 | 1008.9 | |
| 20260506022716 | 50 | 240 | 0.0 | 0.9 | 0.00 | 0.14 | 0.00 | 90 | 1008.9 |
| 20260506021716 | 50 | 228 | 0.0 | 1.7 | 0.00 | 0.14 | 0.00 | 90 | 1009.0 |
| 20260506020717 | 50 | 0.0 | 0.0 | 0.00 | 0.14 | 0.00 | 91 | 1009.3 | |
| 20260506015717 | 50 | 243 | 0.0 | 2.6 | 0.00 | 0.14 | 0.00 | 90 | 1009.4 |
| 20260506014717 | 51 | 192 | 1.7 | 5.2 | 0.00 | 0.14 | 0.00 | 89 | 1009.5 |
| 20260506013718 | 51 | 214 | 1.7 | 5.2 | 0.00 | 0.14 | 0.00 | 89 | 1009.5 |
| 20260506012715 | 51 | 219 | 1.7 | 4.3 | 0.00 | 0.14 | 0.00 | 90 | 1009.6 |
| 20260506011716 | 50 | 215 | 1.7 | 3.5 | 0.00 | 0.14 | 0.00 | 90 | 1009.7 |
| 20260506010716 | 50 | 222 | 0.9 | 2.6 | 0.00 | 0.14 | 0.00 | 90 | 1009.8 |
| 20260506005716 | 50 | 219 | 0.0 | 2.6 | 0.00 | 0.14 | 0.00 | 90 | 1009.9 |
| 20260506004716 | 50 | 164 | 0.9 | 3.5 | 0.00 | 0.14 | 0.00 | 91 | 1010.0 |
| 20260506003717 | 50 | 147 | 0.0 | 1.7 | 0.00 | 0.14 | 0.00 | 92 | 1010.0 |
| 20260506002718 | 50 | 173 | 0.0 | 0.9 | 0.00 | 0.14 | 0.00 | 92 | 1010.2 |
| 20260506001715 | 50 | 154 | 0.9 | 6.1 | 0.00 | 0.14 | 0.00 | 93 | 1010.4 |
| 20260506000716 | 50 | 145 | 0.0 | 0.9 | 0.00 | 0.14 | 0.00 | 93 | 1010.4 |
| 20260505235716 | 50 | 0.0 | 0.0 | 0.00 | 0.14 | 0.00 | 93 | 1010.3 | |
| 20260505234717 | 50 | 0.0 | 0.0 | 0.00 | 0.14 | 0.00 | 92 | 1010.3 | |
| 20260505233717 | 50 | 182 | 0.9 | 3.5 | 0.00 | 0.14 | 0.00 | 92 | 1010.3 |
| 20260505232718 | 50 | 150 | 0.0 | 0.9 | 0.00 | 0.14 | 0.00 | 92 | 1010.4 |
| 20260505231718 | 51 | 144 | 0.0 | 1.7 | 0.00 | 0.14 | 0.00 | 91 | 1010.5 |
| 20260505230716 | 51 | 165 | 0.0 | 0.9 | 0.00 | 0.14 | 0.00 | 91 | 1010.7 |
| 20260505225716 | 51 | 159 | 0.0 | 1.7 | 0.00 | 0.14 | 0.00 | 91 | 1010.7 |
| 20260505224716 | 51 | 161 | 0.9 | 5.2 | 0.00 | 0.14 | 0.00 | 90 | 1010.7 |
| 20260505223716 | 51 | 0.0 | 0.0 | 0.00 | 0.14 | 0.00 | 89 | 1010.7 | |
| 20260505222717 | 52 | 0.0 | 0.0 | 0.00 | 0.14 | 0.00 | 88 | 1010.7 | |
| 20260505221717 | 51 | 132 | 0.0 | 1.7 | 0.00 | 0.14 | 0.00 | 88 | 1010.6 |
| 20260505220717 | 51 | 0.0 | 0.0 | 0.00 | 0.14 | 0.00 | 88 | 1010.8 | |
| 20260505215715 | 51 | 0.0 | 0.0 | 0.00 | 0.14 | 0.14 | 88 | 1010.9 | |
| 20260505214716 | 52 | 0.0 | 0.0 | 0.00 | 0.14 | 0.14 | 88 | 1011.0 | |
| 20260505213716 | 52 | 150 | 0.9 | 2.6 | 0.00 | 0.14 | 0.14 | 88 | 1011.0 |
| 20260505212716 | 52 | 147 | 0.0 | 0.9 | 0.00 | 0.14 | 0.14 | 87 | 1011.1 |
| 20260505211716 | 52 | 0.0 | 0.0 | 0.00 | 0.14 | 0.14 | 87 | 1011.2 | |
| 20260505210717 | 52 | 0.0 | 0.0 | 0.00 | 0.14 | 0.14 | 86 | 1011.2 | |
| 20260505205718 | 52 | 223 | 0.0 | 0.9 | 0.00 | 0.14 | 0.14 | 85 | 1011.1 |
| 20260505204715 | 52 | 192 | 0.9 | 2.6 | 0.00 | 0.14 | 0.14 | 86 | 1011.1 |
| 20260505203716 | 52 | 168 | 0.0 | 1.7 | 0.00 | 0.14 | 0.14 | 87 | 1011.2 |
| 20260505202716 | 52 | 152 | 0.9 | 1.7 | 0.00 | 0.14 | 0.14 | 88 | 1011.1 |
| 20260505201716 | 51 | 147 | 0.9 | 3.5 | 0.00 | 0.14 | 0.14 | 89 | 1011.0 |
| 20260505200716 | 52 | 152 | 0.9 | 3.5 | 0.00 | 0.14 | 0.14 | 89 | 1011.0 |
| 20260505195717 | 52 | 150 | 0.9 | 3.5 | 0.00 | 0.14 | 0.14 | 89 | 1010.9 |
| 20260505194718 | 52 | 153 | 0.9 | 5.2 | 0.00 | 0.14 | 0.14 | 89 | 1010.9 |
| 20260505193715 | 52 | 144 | 0.9 | 3.5 | 0.00 | 0.14 | 0.14 | 89 | 1010.8 |
| 20260505192716 | 52 | 142 | 0.9 | 4.3 | 0.00 | 0.14 | 0.14 | 89 | 1010.7 |
| 20260505191716 | 52 | 150 | 2.6 | 6.1 | 0.00 | 0.14 | 0.14 | 89 | 1010.6 |
| 20260505190716 | 53 | 156 | 1.7 | 7.0 | 0.00 | 0.14 | 0.14 | 89 | 1010.5 |
| 20260505185717 | 53 | 162 | 2.6 | 9.6 | 0.00 | 0.14 | 0.14 | 90 | 1010.3 |
| 20260505184717 | 53 | 168 | 2.6 | 7.0 | 0.00 | 0.14 | 0.14 | 89 | 1010.3 |
| 20260505183717 | 54 | 163 | 2.6 | 8.7 | 0.00 | 0.14 | 0.14 | 89 | 1010.2 |
| 20260505182715 | 54 | 162 | 2.6 | 7.8 | 0.01 | 0.14 | 0.14 | 89 | 1010.3 |
| 20260505181716 | 54 | 161 | 2.6 | 8.7 | 0.01 | 0.14 | 0.14 | 89 | 1010.3 |
| 20260505180716 | 53 | 164 | 3.5 | 7.8 | 0.01 | 0.14 | 0.14 | 91 | 1010.4 |
| 20260505175717 | 53 | 167 | 3.5 | 7.0 | 0.01 | 0.14 | 0.14 | 92 | 1010.3 |
| 20260505174717 | 53 | 157 | 3.5 | 8.7 | 0.01 | 0.14 | 0.14 | 92 | 1010.4 |
| 20260505173718 | 52 | 176 | 2.6 | 8.7 | 0.03 | 0.14 | 0.14 | 92 | 1010.5 |
| 20260505172717 | 52 | 187 | 2.6 | 4.3 | 0.07 | 0.13 | 0.13 | 93 | 1010.4 |
| 20260505171716 | 52 | 206 | 1.7 | 8.7 | 0.08 | 0.13 | 0.13 | 93 | 1010.2 |
| 20260505170716 | 52 | 220 | 1.7 | 4.3 | 0.09 | 0.13 | 0.13 | 92 | 1010.1 |
| 20260505165716 | 52 | 0.0 | 0.0 | 0.09 | 0.13 | 0.13 | 92 | 1010.2 |